timestamp,wind_dir_avg,wind_spd_avg,wind_spd_max_dir,wind_spd_gust,battery_voltage,lat,long
2023-11-10 00:04:01+00:00,342.0,13.25,339.0,17.16,12.09,47.59359,-54.27349
2023-11-10 00:14:00+00:00,342.0,13.73,335.0,16.9,12.09,47.59359,-54.27349
2023-11-10 00:24:00+00:00,343.0,13.35,340.0,15.97,12.09,47.59359,-54.27349
2023-11-10 00:34:00+00:00,345.0,12.6,343.0,15.16,12.09,47.59359,-54.27349
2023-11-10 00:44:00+00:00,335.0,11.98,327.0,15.14,12.09,47.59359,-54.27349
2023-11-10 00:54:00+00:00,342.0,14.15,334.0,17.02,12.09,47.59359,-54.27349
2023-11-10 01:04:00+00:00,339.0,14.49,344.0,16.11,12.09,47.59359,-54.27349
2023-11-10 01:14:00+00:00,334.0,13.82,331.0,15.27,12.09,47.59359,-54.27349
2023-11-10 01:24:00+00:00,333.0,13.79,337.0,17.08,12.09,47.59359,-54.27349
2023-11-10 01:34:00+00:00,328.0,13.88,332.0,15.3,12.09,47.59359,-54.27349
2023-11-10 01:44:00+00:00,335.0,13.78,337.0,16.52,12.09,47.59359,-54.27349
2023-11-10 01:54:00+00:00,333.0,14.83,332.0,16.59,12.09,47.59359,-54.27349
2023-11-10 02:04:00+00:00,344.0,13.93,341.0,18.0,12.09,47.59359,-54.27349
2023-11-10 02:14:00+00:00,338.0,14.62,337.0,17.34,12.09,47.59359,-54.27349
2023-11-10 02:24:00+00:00,336.0,13.8,340.0,16.6,12.09,47.59359,-54.27349
2023-11-10 02:34:00+00:00,338.0,13.72,331.0,16.6,12.09,47.59359,-54.27349
2023-11-10 02:44:00+00:00,347.0,15.96,351.0,18.8,12.09,47.59359,-54.27349
2023-11-10 02:54:00+00:00,339.0,14.92,343.0,18.51,12.09,47.59359,-54.27349
2023-11-10 03:04:00+00:00,345.0,16.64,337.0,19.75,12.09,47.59359,-54.27349
2023-11-10 03:14:00+00:00,341.0,13.84,343.0,16.43,12.01,47.59359,-54.27349
2023-11-10 03:24:00+00:00,342.0,13.55,345.0,16.42,12.01,47.59359,-54.27349
2023-11-10 03:34:00+00:00,342.0,13.18,344.0,14.71,12.01,47.59359,-54.27349
2023-11-10 03:44:00+00:00,338.0,13.48,336.0,15.26,12.01,47.59359,-54.27349
2023-11-10 03:54:00+00:00,337.0,12.78,333.0,14.7,12.01,47.59359,-54.27349
2023-11-10 04:04:00+00:00,349.0,13.73,359.0,16.82,12.01,47.59359,-54.27349
2023-11-10 04:14:00+00:00,345.0,14.53,341.0,17.41,12.09,47.59359,-54.27349
2023-11-10 04:24:00+00:00,337.0,13.96,337.0,17.49,12.09,47.59359,-54.27349
2023-11-10 04:34:00+00:00,333.0,14.27,336.0,17.68,12.09,47.59359,-54.27349
2023-11-10 04:44:00+00:00,339.0,15.89,343.0,18.64,12.09,47.59359,-54.27349
2023-11-10 04:54:00+00:00,337.0,14.0,344.0,16.44,12.09,47.59359,-54.27349
2023-11-10 05:04:00+00:00,335.0,14.44,338.0,17.32,12.09,47.59359,-54.27349
2023-11-10 05:14:00+00:00,334.0,12.56,333.0,15.48,12.09,47.59359,-54.27349
2023-11-10 05:24:00+00:00,337.0,11.74,333.0,14.65,12.09,47.59359,-54.27349
2023-11-10 05:34:00+00:00,344.0,12.3,345.0,14.38,12.09,47.59359,-54.27349
2023-11-10 05:44:00+00:00,335.0,11.28,335.0,13.43,12.09,47.59359,-54.27349
2023-11-10 05:54:00+00:00,337.0,12.04,341.0,14.34,12.09,47.59359,-54.27349
2023-11-10 06:04:00+00:00,339.0,12.69,340.0,14.51,12.09,47.59359,-54.27349
2023-11-10 06:14:00+00:00,339.0,12.19,339.0,14.39,12.01,47.59359,-54.27349
2023-11-10 06:24:00+00:00,333.0,12.72,339.0,15.35,12.01,47.59359,-54.27349
2023-11-10 06:34:00+00:00,338.0,12.04,341.0,14.38,12.01,47.59359,-54.27349
2023-11-10 06:44:00+00:00,331.0,11.4,335.0,13.22,12.01,47.59359,-54.27349
2023-11-10 06:54:00+00:00,329.0,11.07,329.0,13.67,12.01,47.59359,-54.27349
2023-11-10 07:04:00+00:00,333.0,11.23,340.0,13.29,12.01,47.59359,-54.27349
2023-11-10 07:14:00+00:00,339.0,11.36,358.0,12.94,12.01,47.59359,-54.27349
2023-11-10 07:24:00+00:00,340.0,11.9,332.0,14.67,12.01,47.59359,-54.27349
2023-11-10 07:34:00+00:00,333.0,11.14,346.0,14.16,12.01,47.59359,-54.27349
2023-11-10 07:44:00+00:00,338.0,11.79,339.0,14.62,12.01,47.59359,-54.27349
2023-11-10 07:54:00+00:00,333.0,9.44,336.0,10.92,12.01,47.59359,-54.27349
2023-11-10 08:04:00+00:00,340.0,11.96,335.0,14.67,12.01,47.59359,-54.27349
2023-11-10 08:14:00+00:00,330.0,10.64,330.0,12.65,12.09,47.59359,-54.27349
2023-11-10 08:24:00+00:00,331.0,10.98,324.0,13.16,12.09,47.59359,-54.27349
2023-11-10 08:34:00+00:00,326.0,11.16,323.0,12.87,12.09,47.59359,-54.27349
2023-11-10 08:44:00+00:00,328.0,11.15,324.0,12.23,12.09,47.59359,-54.27349
2023-11-10 08:54:00+00:00,317.0,11.74,322.0,13.72,12.09,47.59359,-54.27349
2023-11-10 09:04:00+00:00,324.0,11.27,322.0,12.99,12.09,47.59359,-54.27349
2023-11-10 09:14:00+00:00,318.0,10.57,323.0,12.18,12.09,47.59359,-54.27349
2023-11-10 09:24:00+00:00,317.0,10.66,315.0,12.4,12.09,47.59359,-54.27349
2023-11-10 09:34:00+00:00,316.0,11.22,321.0,12.8,12.09,47.59359,-54.27349
2023-11-10 09:44:00+00:00,314.0,10.26,313.0,11.76,12.09,47.59359,-54.27349
2023-11-10 09:54:00+00:00,313.0,9.9,315.0,12.25,12.09,47.59359,-54.27349
2023-11-10 10:04:00+00:00,315.0,10.07,313.0,11.29,12.09,47.59359,-54.27349
2023-11-10 10:14:01+00:00,319.0,11.18,322.0,12.61,12.01,47.59359,-54.27349
2023-11-10 10:24:01+00:00,324.0,12.14,323.0,14.17,12.01,47.59359,-54.27349
2023-11-10 10:34:01+00:00,327.0,11.6,326.0,13.63,12.01,47.59359,-54.27349
2023-11-10 10:44:01+00:00,329.0,10.94,326.0,12.87,12.01,47.59359,-54.27349
2023-11-10 10:54:01+00:00,323.0,10.26,324.0,11.31,12.01,47.59359,-54.27349
2023-11-10 11:04:01+00:00,337.0,10.98,337.0,13.39,12.01,47.59359,-54.27349
2023-11-10 11:14:00+00:00,344.0,9.35,332.0,11.27,12.89,47.59359,-54.27349
2023-11-10 11:24:00+00:00,332.0,9.13,337.0,11.18,12.89,47.59359,-54.27349
2023-11-10 11:34:00+00:00,324.0,9.75,323.0,11.61,12.89,47.59359,-54.27349
2023-11-10 11:44:00+00:00,325.0,9.91,323.0,11.75,12.89,47.59359,-54.27349
2023-11-10 11:54:00+00:00,325.0,8.89,319.0,10.27,12.89,47.59359,-54.27349
2023-11-10 12:04:00+00:00,311.0,10.15,307.0,11.37,12.89,47.59359,-54.27349
2023-11-10 12:14:00+00:00,320.0,9.03,313.0,11.25,13.37,47.59359,-54.27349
2023-11-10 12:24:00+00:00,317.0,10.62,321.0,12.46,13.37,47.59359,-54.27349
2023-11-10 12:34:00+00:00,321.0,10.95,322.0,12.57,13.37,47.59359,-54.27349
2023-11-10 12:44:00+00:00,319.0,10.68,320.0,12.09,13.37,47.59359,-54.27349
2023-11-10 12:54:00+00:00,326.0,9.59,324.0,11.19,13.37,47.59359,-54.27349
2023-11-10 13:04:00+00:00,326.0,9.77,318.0,11.73,13.37,47.59359,-54.27349
2023-11-10 13:14:00+00:00,328.0,10.99,324.0,13.32,14.24,47.59359,-54.27349
2023-11-10 13:24:00+00:00,331.0,10.77,326.0,13.02,14.24,47.59359,-54.27349
2023-11-10 13:34:00+00:00,342.0,9.51,341.0,11.34,14.24,47.59359,-54.27349
2023-11-10 13:44:00+00:00,324.0,8.22,330.0,9.55,14.24,47.59359,-54.27349
2023-11-10 13:54:00+00:00,324.0,8.76,323.0,10.53,14.24,47.59359,-54.27349
2023-11-10 14:04:00+00:00,334.0,8.78,330.0,10.6,14.24,47.59359,-54.27349
2023-11-10 14:14:00+00:00,332.0,9.16,329.0,11.66,13.92,47.59359,-54.27349
2023-11-10 14:24:00+00:00,329.0,10.65,329.0,12.3,13.92,47.59359,-54.27349
2023-11-10 14:34:00+00:00,327.0,10.06,337.0,11.15,13.92,47.59359,-54.27349
2023-11-10 14:44:00+00:00,324.0,9.84,327.0,12.93,13.92,47.59359,-54.27349
2023-11-10 14:54:00+00:00,315.0,9.34,317.0,10.72,13.92,47.59359,-54.27349
2023-11-10 15:04:00+00:00,332.0,9.04,333.0,10.29,13.92,47.59359,-54.27349
2023-11-10 15:14:00+00:00,319.0,9.78,316.0,10.97,13.84,47.59359,-54.27349
2023-11-10 15:24:00+00:00,318.0,8.3,322.0,10.19,13.84,47.59359,-54.27349
2023-11-10 15:34:00+00:00,324.0,8.21,322.0,10.6,13.84,47.59359,-54.27349
2023-11-10 15:44:00+00:00,341.0,7.99,343.0,8.92,13.84,47.59359,-54.27349
2023-11-10 15:54:00+00:00,323.0,8.23,314.0,9.31,13.84,47.59359,-54.27349
2023-11-10 16:04:00+00:00,326.0,8.38,327.0,9.42,13.84,47.59359,-54.27349
2023-11-10 16:14:01+00:00,326.0,9.16,327.0,10.5,13.84,47.59359,-54.27349
2023-11-10 16:24:01+00:00,323.0,8.6,326.0,9.31,13.84,47.59359,-54.27349
2023-11-10 16:34:01+00:00,324.0,8.57,326.0,9.64,13.84,47.59359,-54.27349
2023-11-10 16:44:01+00:00,333.0,9.67,322.0,11.54,13.84,47.59359,-54.27349
2023-11-10 16:54:01+00:00,334.0,10.36,336.0,11.43,13.84,47.59359,-54.27349
2023-11-10 17:04:01+00:00,312.0,7.73,311.0,9.63,13.84,47.59359,-54.27349
2023-11-10 17:14:00+00:00,330.0,9.23,333.0,10.33,13.6,47.59359,-54.27349
2023-11-10 17:24:00+00:00,326.0,8.86,325.0,10.41,13.6,47.59359,-54.27349
2023-11-10 17:34:00+00:00,320.0,6.98,318.0,9.26,13.6,47.59359,-54.27349
2023-11-10 17:44:00+00:00,315.0,8.58,323.0,11.26,13.6,47.59359,-54.27349
2023-11-10 17:54:00+00:00,320.0,6.72,326.0,8.48,13.6,47.59359,-54.27349
2023-11-10 18:04:00+00:00,303.0,6.32,311.0,7.98,13.6,47.59359,-54.27349
2023-11-10 18:14:01+00:00,309.0,6.29,320.0,8.08,13.05,47.59359,-54.27349
2023-11-10 18:24:01+00:00,320.0,5.28,305.0,6.27,13.05,47.59359,-54.27349
2023-11-10 18:34:01+00:00,307.0,7.27,303.0,8.76,13.05,47.59359,-54.27349
2023-11-10 18:44:01+00:00,300.0,6.36,304.0,8.21,13.05,47.59359,-54.27349
2023-11-10 18:54:01+00:00,308.0,8.09,296.0,10.19,13.05,47.59359,-54.27349
2023-11-10 19:04:01+00:00,308.0,8.61,310.0,10.34,13.05,47.59359,-54.27349
2023-11-10 19:14:00+00:00,305.0,7.68,309.0,9.12,12.81,47.59359,-54.27349
2023-11-10 19:24:00+00:00,313.0,8.92,315.0,10.91,12.81,47.59359,-54.27349
2023-11-10 19:34:00+00:00,290.0,8.09,288.0,10.56,12.81,47.59359,-54.27349
2023-11-10 19:44:00+00:00,311.0,7.66,310.0,9.0,12.81,47.59359,-54.27349
2023-11-10 19:54:00+00:00,305.0,8.3,308.0,11.5,12.81,47.59359,-54.27349
2023-11-10 20:04:00+00:00,305.0,7.58,306.0,9.06,12.81,47.59359,-54.27349
2023-11-10 20:14:01+00:00,305.0,6.19,311.0,7.14,12.57,47.59359,-54.27349
2023-11-10 20:24:01+00:00,303.0,7.96,308.0,9.01,12.57,47.59359,-54.27349
2023-11-10 20:34:01+00:00,301.0,6.56,300.0,7.34,12.57,47.59359,-54.27349
2023-11-10 20:44:01+00:00,311.0,7.6,300.0,9.29,12.57,47.59359,-54.27349
2023-11-10 20:54:01+00:00,316.0,6.33,330.0,8.26,12.57,47.59359,-54.27349
2023-11-10 21:04:01+00:00,313.0,7.7,320.0,9.78,12.57,47.59359,-54.27349
2023-11-10 21:14:01+00:00,309.0,7.4,310.0,8.59,12.49,47.59359,-54.27349
2023-11-10 21:24:01+00:00,308.0,7.04,310.0,8.98,12.49,47.59359,-54.27349
2023-11-10 21:34:01+00:00,309.0,8.4,307.0,10.51,12.49,47.59359,-54.27349
2023-11-10 21:44:01+00:00,306.0,8.22,305.0,9.46,12.49,47.59359,-54.27349
2023-11-10 21:54:01+00:00,311.0,7.41,298.0,9.08,12.49,47.59359,-54.27349
2023-11-10 22:04:01+00:00,306.0,6.23,303.0,7.78,12.49,47.59359,-54.27349
2023-11-10 22:14:01+00:00,301.0,7.82,299.0,9.86,12.41,47.59359,-54.27349
2023-11-10 22:24:01+00:00,315.0,7.17,310.0,9.95,12.41,47.59359,-54.27349
2023-11-10 22:34:01+00:00,304.0,5.31,305.0,6.55,12.41,47.59359,-54.27349
2023-11-10 22:44:01+00:00,310.0,6.55,306.0,8.95,12.41,47.59359,-54.27349
2023-11-10 22:54:01+00:00,307.0,7.87,302.0,10.0,12.41,47.59359,-54.27349
2023-11-10 23:04:01+00:00,302.0,7.79,301.0,9.23,12.41,47.59359,-54.27349
2023-11-10 23:14:00+00:00,302.0,7.49,306.0,9.82,12.41,47.59359,-54.27349
2023-11-10 23:24:00+00:00,299.0,8.38,297.0,9.84,12.41,47.59359,-54.27349
2023-11-10 23:34:00+00:00,305.0,8.1,298.0,9.54,12.41,47.59359,-54.27349
2023-11-10 23:44:00+00:00,297.0,8.6,303.0,9.74,12.41,47.59359,-54.27349
2023-11-10 23:54:00+00:00,290.0,8.57,288.0,9.53,12.41,47.59359,-54.27349
